Voltar ao catálogo

STARLINK-35300

AtivoComunicaçõesSSO
NORAD 65800·PAYLOAD·🇺🇸 United States

Lançado Sep 26, 2025 de Vandenberg Space Force Base

Loading…

Próximas Passagens (próximas 24 horas)

TLE

AtualizadoSource: CelesTrak SupGP

Época: Sep 14, 2026, 21:33 UTC

1 65800C 25218K   26257.89840278  .00049273  00000+0  15301-2 0  2578
2 65800  97.2849 115.3291 0001683  90.2858 281.3199 15.33401560    14

Acompanhe STARLINK-35300 em tempo real com AllMySat

Download on the App Store